Home > Weather > Debrecen > Past weeks

Flag for Hungary Past Weather in Debrecen, Hungary — Yesterday and Last 2 Weeks

Now
75 °F

Clear.


Feels Like: 75 °F
Forecast: 70 / 83 °F
Wind: 3 mph from East

Location: Debrecen Airport

Current Time: Jun 25, 2016 at 3:36:03 AM

Latest Report: Jun 25, 2016 at 1:15 AM


Visibility: 10 mi

Pressure: 30.04 "Hg

Humidity: 83%

Dew Point: 70 °F

Location of DebrecenLocation

Past Weather in Debrecen — Graph

°F

Debrecen Temperature Yesterday

Maximum temperature yesterday: 93 °F (at 3:45 PM)
Minimum temperature yesterday: 72 °F (at 5:15 AM)
Average temperature yesterday: 84 °F

High & Low Weather Summary for the Past Weeks

 TemperatureHumidityPressure
High93 °F (Jun 24, 3:45 PM)100% (Jun 14, 8:45 AM)30.24 "Hg (Jun 14, 8:45 AM)
Low54 °F (Jun 11, 4:45 AM)32% (Jun 19, 12:45 PM)29.47 "Hg (Jun 14, 5:15 PM)
Average72 °F72%29.92 "Hg
* Reported Jun 10 5:15 AM — Jun 25 1:15 AM, Debrecen, Weather by CustomWeather, © 2016

Note: Actual official high and low records may vary slightly from our data, if they occured in-between our weather recording intervals... More about our weather records

Advertising

Debrecen Weather History for the Previous 24 Hours

Scroll right to see more
 ConditionsComfort  
Time TempWeatherWind HumidityBarometerVisibility
1:15 AM
Sat, Jun 25
75 °FClear.3 mph83%30.04 "Hg10 mi
12:45 AM75 °FClear.3 mph83%30.04 "Hg10 mi
12:15 AM77 °FClear.3 mph83%30.07 "Hg10 mi
11:15 PM
Fri, Jun 24
79 °FClear.5 mph84%30.07 "Hg10 mi
10:45 PM81 °FClear.3 mph79%30.07 "Hg10 mi
10:15 PM81 °FClear.7 mph84%30.07 "Hg10 mi
9:45 PM81 °FClear.3 mph84%30.07 "Hg10 mi
9:15 PM84 °FScattered clouds.2 mph79%30.07 "HgN/A
8:45 PM86 °FSunny.2 mph70%30.07 "Hg10 mi
8:15 PM86 °FSunny.2 mph70%30.04 "Hg10 mi
7:45 PM86 °FSunny.2 mph70%30.04 "Hg10 mi
7:15 PM88 °FScattered clouds.3 mph66%30.04 "HgN/A
6:45 PM90 °FScattered clouds.5 mph59%30.07 "HgN/A
6:15 PM90 °FScattered clouds.5 mph52%30.07 "Hg2 mi
5:45 PM90 °FScattered clouds.6 mph55%30.07 "HgN/A
5:15 PM90 °FScattered clouds.7 mph55%30.07 "HgN/A
4:45 PM90 °FScattered clouds.8 mph52%30.07 "HgN/A
4:15 PM93 °FScattered clouds.5 mph49%30.07 "HgN/A
3:45 PM93 °FScattered clouds.5 mph47%30.07 "HgN/A
3:15 PM91 °FScattered clouds.3 mph52%30.07 "HgN/A
2:45 PM91 °FScattered clouds.2 mph52%30.09 "HgN/A
2:15 PM91 °FScattered clouds.2 mph56%30.09 "HgN/A
1:45 PM91 °FScattered clouds.5 mph49%30.09 "HgN/A
1:15 PM91 °FScattered clouds.5 mph52%30.09 "HgN/A
12:45 PM90 °FScattered clouds.5 mph55%30.12 "HgN/A
11:45 AM88 °FPassing clouds.2 mph59%30.12 "HgN/A
11:15 AM88 °FPassing clouds.5 mph59%30.12 "HgN/A
10:45 AM88 °FPassing clouds.6 mph59%30.12 "HgN/A
10:15 AM88 °FSunny.6 mph59%30.12 "Hg10 mi
9:45 AM86 °FSunny.5 mph59%30.12 "Hg10 mi
9:15 AM86 °FSunny.3 mph55%30.12 "Hg10 mi
8:45 AM84 °FSunny.2 mph62%30.15 "Hg10 mi
8:15 AM82 °FSunny.2 mph66%30.15 "Hg10 mi
7:45 AM81 °FSunny.5 mph66%30.12 "Hg10 mi
7:15 AM77 °FSunny.5 mph74%30.12 "Hg10 mi
6:45 AM75 °FSunny.6 mph78%30.15 "Hg10 mi
6:15 AM73 °FSunny.5 mph83%30.12 "Hg10 mi
5:45 AM72 °FSunny.6 mph83%30.12 "Hg10 mi
5:15 AM72 °FClear.3 mph83%30.12 "Hg10 mi
3:15 AM73 °FClear.6 mph83%30.15 "Hg10 mi
Weather by CustomWeather, © 2016

See weather overviewHow to use our weather pages